Meteo Giornale » Osservazioni meteo Canada » North Bay Ont
ore: 17:43 - Osservazioni Meteo North Bay Ont
Lat. 46° 21' N Lon. 79° 26' W Alt. 358 metri s.l.m.
19 °C
Pioviggine
Temp. 24 Ore
11 °C
21 °C
Est/Sud-Est
13 Km/h
Dew point 18 °C
Umidità 93 %
Visibilità 0 Km
Il sole sorge alle ore 06:37
Il sole tramonta alle ore 19:58
| Data e Ora | Cielo e Fenomeni | T °C | DP °C | Um. % | Pres. hPa | Vis. km | Vento km/h | |
|---|---|---|---|---|---|---|---|---|
| Oggi h: 17:43 | Pioviggine | 19 | 18 | 93 | 1016 | 0 | E/SE 13 | |
| Oggi h: 17:00 | Coperto | 20 | 18 | 88 | 1016 | 0 | SE 13 | |
| Oggi h: 16:00 | Coperto | 20 | 17 | 82 | 1017 | 0 | S/SE 13 | |
| Oggi h: 15:00 | Coperto | 20 | 18 | 88 | 1017 | 0 | S/SO 11.1 | |
| Oggi h: 14:00 | Coperto | 21 | 18 | 82 | 1017 | 32 | E/SE 13 | |
| Oggi h: 13:00 | Coperto | 20 | 17 | 82 | 1018 | 32 | E/SE 16.7 | |
| Oggi h: 12:00 | Coperto | 19 | 17 | 88 | 1018 | 32 | E/SE 11.1 | |
| Oggi h: 11:00 | Coperto | 18 | 17 | 93 | 1018 | 32 | E/SE 16.7 | |
| Oggi h: 10:00 | Foschia | 17 | 17 | 100 | 1018 | 8 | E/SE 18.5 | |
| Oggi h: 09:44 | Foschia | 17 | 16 | 93 | 1018 | 8 | E/SE 16.7 | |
| Oggi h: 09:00 | Foschia | 16 | 16 | 100 | 1018 | 2 | E 16.7 | |
| Oggi h: 08:43 | Foschia | 16 | 16 | 100 | 1018 | 3 | E 14.8 | |
| Oggi h: 08:30 | Foschia | 15 | 15 | 100 | 1018 | 2 | E 14.8 | |
| Oggi h: 08:26 | Nebbia | 15 | 15 | 100 | 1018 | 2 | E 13 | |
| Oggi h: 08:19 | Nebbia | 15 | 15 | 100 | 1018 | 2 | E 14.8 | |
| Oggi h: 08:00 | Nebbia | 15 | 15 | 100 | 1018 | 2 | E 13 | |
| Oggi h: 07:00 | Nebbia | 14 | 14 | 100 | 1018 | 2 | E 9.3 | |
| Oggi h: 06:47 | Nebbia | 14 | 14 | 100 | 1018 | 2 | E 11.1 | |
| Oggi h: 06:31 | Nebbia | 14 | 13 | 93 | 1018 | 5 | E/SE 11.1 | |
| Oggi h: 06:29 | Foschia | 14 | 13 | 93 | 1018 | 2 | E/SE 9.3 | |
| Oggi h: 06:26 | Foschia | 14 | 14 | 100 | 1018 | 2 | E/SE 9.3 | |
| Oggi h: 06:25 | Foschia | 14 | 14 | 100 | 1018 | 5 | E/SE 9.3 | |
| Oggi h: 06:20 | Foschia | 14 | 14 | 100 | 1018 | 8 | E 9.3 | |
| Oggi h: 06:00 | Poco Nuvoloso | 15 | 15 | 100 | 1018 | 14 | E/NE 13 | |
| Oggi h: 05:54 | Nuvoloso | 15 | 15 | 100 | 1018 | 14 | E/NE 11.1 | |
| Oggi h: 05:48 | Foschia | 15 | 15 | 100 | 1018 | 10 | E 11.1 | |
| Oggi h: 05:45 | Foschia | 15 | 15 | 100 | 1018 | 5 | E 11.1 | |
| Oggi h: 05:43 | Foschia | 15 | 14 | 93 | 1018 | 3 | E 9.3 | |
| Oggi h: 05:13 | Nebbia | 15 | 15 | 100 | 1018 | 2 | E/NE 11.1 | |
| Oggi h: 05:12 | Nebbia | 15 | 15 | 100 | 1018 | 5 | E/NE 11.1 | |
| Oggi h: 05:01 | Nebbia | 15 | 14 | 93 | 1018 | 5 | E 11.1 | |
| Oggi h: 05:00 | Nebbia | 15 | 14 | 93 | 1018 | 2 | E 11.1 | |
| Oggi h: 04:58 | Foschia | 15 | 14 | 93 | 1018 | 8 | E 11.1 | |
| Oggi h: 04:51 | Foschia | 15 | 15 | 100 | 1018 | 2 | E 13 | |
| Oggi h: 04:50 | Foschia | 15 | 15 | 100 | 1018 | 3 | E 13 | |
| Oggi h: 04:48 | Foschia | 15 | 15 | 100 | 1018 | 5 | E 13 | |
| Oggi h: 04:46 | Foschia | 15 | 15 | 100 | 1018 | 8 | E 13 | |
| Oggi h: 04:13 | Foschia | 13 | 13 | 100 | 1019 | 10 | E 9.3 | |
| Oggi h: 04:11 | Foschia | 12 | 12 | 100 | 1019 | 5 | E 7.4 | |
| Oggi h: 04:02 | Foschia | 12 | 12 | 100 | 1019 | 2 | E 7.4 | |
| Oggi h: 04:00 | Foschia | 11 | 11 | 100 | 1019 | 8 | N 5.5 | |
| Oggi h: 03:37 | Foschia | 12 | 11 | 93 | 1019 | 10 | N 3.7 | |
| Oggi h: 03:26 | Foschia | 13 | 12 | 93 | 1018 | 8 | E/NE 7.4 | |
| Oggi h: 03:14 | Foschia | 12 | 12 | 100 | 1019 | 10 | E 7.4 | |
| Oggi h: 03:12 | Foschia | 12 | 12 | 100 | 1019 | 5 | E 7.4 | |
| Oggi h: 03:07 | Nebbia | 12 | 12 | 100 | 1019 | 2 | N 5.5 | |
| Oggi h: 03:01 | Nebbia | 12 | 12 | 100 | 1019 | 5 | N 5.5 | |
| Oggi h: 03:00 | Nebbia | 12 | 12 | 100 | 1019 | 2 | N 5.5 | |
| Oggi h: 02:46 | Foschia | 12 | 12 | 100 | 1019 | 8 | N 0 | |
| Oggi h: 02:38 | Foschia | 12 | 12 | 100 | 1019 | 2 | N 3.7 | |
| Oggi h: 02:37 | Foschia | 13 | 12 | 93 | 1019 | 3 | N 5.5 | |
| Oggi h: 02:35 | Foschia | 13 | 13 | 100 | 1019 | 6 | N 5.5 | |
| Oggi h: 02:34 | Foschia | 13 | 12 | 93 | 1019 | 3 | N 5.5 | |
| Oggi h: 02:25 | Foschia | 12 | 12 | 100 | 1019 | 2 | N 3.7 | |
| Oggi h: 02:22 | Foschia | 12 | 12 | 100 | 1019 | 8 | N 3.7 | |
| Oggi h: 02:10 | Nuvoloso | 14 | 14 | 100 | 1019 | 14 | N 5.5 | |
| Oggi h: 02:09 | Foschia | 14 | 14 | 100 | 1019 | 6 | N 5.5 | |
| Oggi h: 02:08 | Foschia | 14 | 14 | 100 | 1019 | 2 | E 7.4 | |
| Oggi h: 02:00 | Foschia | 13 | 13 | 100 | 1019 | 5 | N 5.5 | |
| Oggi h: 01:49 | Foschia | 13 | 13 | 100 | 1019 | 5 | N 5.5 | |
| Oggi h: 01:48 | Foschia | 13 | 13 | 100 | 1019 | 2 | N 5.5 | |
| Oggi h: 01:47 | Foschia | 13 | 13 | 100 | 1019 | 10 | N 5.5 | |
| Oggi h: 01:44 | Foschia | 14 | 13 | 93 | 1019 | 5 | N 5.5 | |
| Oggi h: 01:27 | Nebbia | 13 | 13 | 100 | 1019 | 2 | N 0 | |
| Oggi h: 01:00 | Nebbia | 14 | 13 | 93 | 1019 | 2 | N 3.7 | |
| Oggi h: 00:20 | Nebbia | 16 | 15 | 93 | 1019 | 2 | N 0 | |
| Oggi h: 00:00 | Nebbia | 14 | 13 | 93 | 1019 | 2 | N 0 | |
| Ieri h: 23:53 | Nebbia | 14 | 14 | 100 | 1019 | 5 | N 0 | |
| Ieri h: 23:44 | Foschia | 14 | 14 | 100 | 1019 | 5 | N 0 | |
| Ieri h: 23:37 | Foschia | 14 | 14 | 100 | 1019 | 2 | N 0 | |
| Ieri h: 23:36 | Foschia | 14 | 14 | 100 | 1019 | 2 | N 0 | |
| Ieri h: 23:32 | Foschia | 15 | 14 | 93 | 1019 | 8 | N 0 | |
| Ieri h: 23:21 | Foschia | 16 | 15 | 93 | 1019 | 10 | N 3.7 | |
| Ieri h: 23:18 | Foschia | 16 | 15 | 93 | 1019 | 5 | N 3.7 | |
| Ieri h: 23:13 | Foschia | 16 | 16 | 100 | 1019 | 3 | N 0 | |
| Ieri h: 23:00 | Foschia | 16 | 16 | 100 | 1019 | 5 | N 0 | |
| Ieri h: 22:59 | Foschia | 17 | 16 | 93 | 1019 | 6 | N 0 | |
| Ieri h: 22:38 | Foschia | 17 | 16 | 93 | 1019 | 10 | N 3.7 | |
| Ieri h: 22:00 | Molto Nuvoloso | 18 | 17 | 93 | 1019 | 24 | N 3.7 | |
| Ieri h: 21:00 | Molto Nuvoloso | 17 | 17 | 100 | 1018 | 24 | N 0 | |
| Ieri h: 20:00 | Molto Nuvoloso | 18 | 17 | 93 | 1018 | 0 | N 3.7 | |
| Ieri h: 19:00 | Molto Nuvoloso | 19 | 17 | 88 | 1017 | 0 | N 5.5 | |



